Date,TemperatureHighF,TemperatureAvgF,TemperatureLowF,DewpointHighF,DewpointAvgF,DewpointLowF,HumidityHigh,HumidityAvg,HumidityLow,PressureMaxIn,PressureMinIn,WindSpeedMaxMPH,WindSpeedAvgMPH,GustSpeedMaxMPH,PrecipitationSumIn
2013-1-1,47,37,29,24,19,14,71,49,31,30.26,30.11,13,3,21,0.00
2013-1-2,48,37,28,19,14,10,65,40,23,30.30,30.14,10,4,15,0.00
2013-1-3,34,30,28,28,24,12,89,78,40,30.44,30.22,10,4,14,0.03
2013-1-4,33,30,26,29,26,23,88,85,80,30.48,30.38,3,0,8,0.21
2013-1-5,39,29,22,30,25,19,90,84,69,30.52,30.40,5,1,8,0.06
2013-1-6,48,34,22,30,26,19,91,72,46,30.54,30.21,4,1,10,0.01
2013-1-7,54,43,35,32,29,27,74,60,41,30.20,29.86,9,4,13,0.00
2013-1-8,58,48,40,32,26,16,70,45,24,30.03,29.84,11,4,14,0.00
2013-1-9,58,46,36,28,22,16,58,39,24,30.24,30.05,12,4,18,0.00
2013-1-10,62,45,30,35,27,22,77,52,25,30.07,29.85,11,2,19,0.00
2013-1-11,54,46,36,35,21,8,74,38,26,29.84,29.73,17,6,35,0.00
2013-1-12,42,35,28,12,6,1,45,30,18,30.11,29.82,36,7,36,0.00
2013-1-13,43,31,20,11,6,1,59,36,18,30.22,30.05,9,2,14,0.00
2013-1-14,44,33,24,21,11,-2,75,44,20,30.15,30.02,14,4,16,0.00
2013-1-15,38,30,24,12,2,-11,60,32,13,30.45,30.12,16,5,21,0.00
2013-1-16,47,34,22,9,2,-4,39,26,16,30.54,30.41,9,1,13,0.00
2013-1-17,58,41,27,23,14,6,48,35,20,30.58,30.39,8,2,12,0.00
2013-1-18,60,43,34,23,21,18,60,43,20,30.40,30.21,8,2,10,0.00
2013-1-19,64,46,31,21,18,14,60,35,16,30.34,30.19,7,2,10,0.00
2013-1-20,65,49,36,16,13,10,38,25,12,30.26,30.08,6,2,9,0.00
2013-1-21,66,51,42,13,10,7,28,20,10,30.22,30.07,12,4,17,0.00
2013-1-22,68,53,42,13,11,9,26,19,10,30.23,30.12,7,2,9,0.00
2013-1-23,70,51,34,22,16,11,45,26,11,30.32,30.18,5,1,11,0.00
2013-1-24,71,56,41,34,23,15,45,29,15,30.24,30.09,9,2,18,0.00
2013-1-25,64,57,50,41,38,33,60,49,39,30.13,29.99,7,2,15,0.00
2013-1-26,65,57,49,48,44,39,78,62,48,30.02,29.85,8,3,28,0.08
2013-1-27,66,57,48,45,42,39,76,58,39,29.93,29.82,14,4,21,0.02
2013-1-28,65,55,44,40,35,30,79,51,30,29.87,29.72,21,6,31,0.00
2013-1-29,47,40,37,34,21,12,70,48,29,30.05,29.73,29,13,42,0.01
2013-1-30,49,41,34,21,12,3,54,33,15,30.30,30.05,19,7,31,0.00
2013-1-31,58,43,29,19,15,7,51,33,20,30.32,30.19,5,1,7,0.00
2013-2-1,64,47,32,18,16,14,53,32,15,30.28,30.13,7,2,9,0.00
2013-2-2,67,51,36,18,14,9,46,25,11,30.33,30.19,7,2,13,0.00
2013-2-3,63,53,42,31,18,14,39,26,16,30.23,29.88,8,2,21,0.00
2013-2-4,65,56,48,33,30,27,51,37,29,29.97,29.84,9,3,22,0.00
2013-2-5,68,53,39,33,28,24,67,41,21,30.00,29.86,6,1,13,0.00
2013-2-6,67,55,40,31,28,22,61,38,19,29.92,29.80,14,4,21,0.00
2013-2-7,67,56,46,31,27,20,54,34,21,30.02,29.90,7,2,15,0.00
2013-2-8,68,55,42,28,23,9,49,30,13,30.02,29.73,7,4,16,0.00
2013-2-9,62,51,41,23,15,8,36,25,13,29.88,29.60,26,10,40,0.00
2013-2-10,55,43,36,18,12,5,42,30,14,29.99,29.84,22,7,38,0.00
2013-2-11,61,46,31,26,12,8,49,27,13,30.01,29.84,16,4,26,0.00
2013-2-12,50,41,34,31,17,2,71,43,14,30.15,29.94,23,7,35,0.02
2013-2-13,54,42,28,13,9,6,46,27,15,30.20,30.05,8,3,14,0.00
2013-2-14,60,46,30,15,11,7,41,26,17,30.15,29.98,11,2,15,0.00
2013-2-15,56,46,37,28,22,12,62,40,25,30.33,30.14,5,2,12,0.00
2013-2-16,63,46,32,22,15,6,59,33,12,30.42,30.14,6,1,10,0.00
2013-2-17,69,52,31,10,6,-6,41,19,5,30.14,29.77,23,6,25,0.00
2013-2-18,64,56,49,11,4,-3,17,13,7,29.94,29.82,22,6,35,0.00
2013-2-19,59,50,44,45,23,2,91,45,13,29.94,29.78,8,4,17,0.32
2013-2-20,61,48,37,42,31,18,89,58,21,29.75,29.49,22,7,41,0.07
2013-2-21,51,40,32,25,22,19,66,48,30,29.94,29.70,22,9,39,0.00
2013-2-22,55,45,32,24,21,18,70,40,23,30.04,29.92,25,7,37,0.00
2013-2-23,59,48,34,21,16,10,42,28,17,30.06,29.71,12,5,25,0.00
2013-2-24,62,49,34,23,16,6,49,28,13,29.82,29.51,24,10,48,0.00
2013-2-25,52,43,32,17,10,5,50,28,17,30.09,29.84,18,7,33,0.00
2013-2-26,65,51,36,13,4,-14,34,17,4,29.98,29.75,17,6,28,0.00
2013-2-27,56,44,33,11,2,-5,30,18,9,30.24,30.00,12,4,22,0.00
2013-2-28,59,45,32,15,9,-1,46,25,11,30.33,30.22,7,2,11,0.00
2013-3-1,66,53,43,13,5,-1,25,15,9,30.32,30.18,10,3,17,0.00
2013-3-2,72,55,39,18,13,11,33,20,10,30.34,30.10,6,2,10,0.00
2013-3-3,79,61,39,19,6,-17,42,18,2,30.10,29.77,26,6,34,0.00
2013-3-4,78,68,60,23,13,-3,20,12,5,29.84,29.54,33,11,40,0.00
2013-3-5,66,54,42,27,23,17,50,31,19,30.19,29.86,10,4,17,0.00
2013-3-6,76,60,48,25,23,23,37,25,14,30.12,29.85,10,3,15,0.00
2013-3-7,78,65,53,27,21,11,32,20,8,29.89,29.74,13,5,23,0.00
2013-3-8,70,63,58,50,35,23,68,38,20,29.79,29.62,16,6,22,0.01
2013-3-9,58,49,42,35,27,20,64,44,24,29.92,29.66,19,11,36,0.00
2013-3-10,57,46,34,28,24,19,73,44,27,30.15,29.91,13,3,24,0.00
2013-3-11,67,51,34,23,18,14,51,31,14,30.19,29.98,10,2,17,0.00
2013-3-12,74,58,41,22,16,11,34,20,9,30.14,29.98,13,4,15,0.00
2013-3-13,78,60,43,23,17,6,42,22,7,30.24,30.05,9,2,11,0.00
2013-3-14,83,64,44,15,10,-1,31,14,4,30.19,30.00,8,2,10,0.00
2013-3-15,85,66,50,17,7,-6,24,12,3,30.02,29.77,8,2,15,0.00
2013-3-16,84,74,61,13,4,-15,12,7,2,29.76,29.52,15,8,28,0.00
2013-3-17,78,71,63,21,12,2,17,10,7,29.66,29.51,16,7,37,0.00
2013-3-18,77,68,59,18,9,-4,17,11,4,29.84,29.67,21,8,46,0.00
2013-3-19,77,67,52,18,14,8,22,13,9,29.93,29.73,11,5,22,0.00
2013-3-20,72,60,49,34,28,19,46,30,19,30.09,29.78,7,3,15,0.00
2013-3-21,83,70,60,30,21,13,32,16,7,29.73,29.49,16,8,26,0.00
2013-3-22,79,70,62,25,22,13,23,17,11,29.60,29.43,17,7,24,0.00
2013-3-23,73,64,49,25,9,-25,28,14,3,29.85,29.56,18,10,36,0.00
2013-3-24,65,50,34,2,-5,-22,25,11,5,30.06,29.81,11,4,21,0.00
2013-3-25,64,50,38,9,4,-4,26,16,9,30.14,29.89,8,4,13,0.00
2013-3-26,73,54,39,17,12,10,31,20,10,30.19,29.92,8,4,15,0.00
2013-3-27,80,62,50,21,18,15,27,19,9,29.96,29.80,12,5,19,0.00
2013-3-28,82,72,55,25,21,16,24,15,11,29.94,29.80,10,4,17,0.00
2013-3-29,84,76,61,21,14,4,20,10,7,30.14,29.83,12,5,21,0.00
2013-3-30,83,72,54,25,14,7,20,11,6,30.13,29.98,13,4,25,0.00
2013-3-31,84,71,56,28,21,14,30,16,9,30.07,29.96,11,2,16,0.00
2013-4-1,84,71,53,32,18,-6,37,16,3,30.06,29.88,15,4,23,0.00
2013-4-2,82,72,64,22,12,0,20,10,6,29.92,29.79,22,8,27,0.00
2013-4-3,75,60,44,36,28,3,65,35,8,30.12,29.91,16,3,28,0.00
2013-4-4,81,64,47,32,22,7,51,25,6,30.22,30.07,6,1,12,0.00
2013-4-5,87,73,59,26,12,-6,22,11,3,30.10,29.87,16,6,26,0.00
2013-4-6,83,74,65,28,21,11,23,14,7,30.02,29.86,17,5,30,0.00
2013-4-7,85,75,64,26,20,12,18,13,7,29.94,29.76,13,5,27,0.00
2013-4-8,86,74,64,28,19,5,26,13,5,29.79,29.52,22,7,40,0.00
2013-4-9,71,58,50,36,24,15,55,29,13,29.89,29.51,20,7,35,0.00
2013-4-10,66,56,47,28,22,15,47,29,14,29.95,29.84,20,7,30,0.00
2013-4-11,76,60,45,21,15,4,35,19,8,29.96,29.78,13,4,22,0.00
2013-4-12,82,66,50,25,15,7,26,15,6,29.92,29.78,8,2,18,0.00
2013-4-13,85,72,59,22,16,6,21,12,6,29.86,29.72,13,4,24,0.00
2013-4-14,84,73,62,26,20,15,22,14,8,29.83,29.69,20,8,36,0.00
2013-4-15,86,74,62,29,18,5,28,14,5,29.86,29.74,24,7,33,0.00
2013-4-16,88,75,66,25,12,-11,21,10,2,29.90,29.76,22,9,30,0.00
2013-4-17,81,70,54,25,16,3,24,13,5,29.95,29.68,28,10,42,0.00
2013-4-18,67,55,45,22,9,-19,37,19,3,30.20,29.96,16,5,24,0.00
2013-4-19,72,55,42,1,-7,-38,17,9,1,30.30,30.04,13,4,16,0.00
2013-4-20,82,64,42,9,-6,-31,25,8,1,30.03,29.84,21,5,33,0.00
2013-4-21,85,72,54,19,7,-5,20,9,3,30.14,29.96,13,4,28,0.00
2013-4-22,90,77,59,16,0,-24,16,6,1,30.03,29.82,14,5,22,0.00
2013-4-23,88,76,57,25,6,-13,28,8,2,30.07,29.80,15,6,29,0.00
2013-4-24,79,61,42,29,25,21,48,28,12,30.22,30.02,14,4,17,0.00
2013-4-25,86,72,58,40,26,-3,35,22,4,30.13,29.89,13,4,26,0.00
2013-4-26,85,73,65,19,7,-17,17,9,2,30.16,29.99,27,7,32,0.00
2013-4-27,88,72,57,29,13,-4,34,13,3,30.19,30.00,10,2,14,0.00
2013-4-28,90,74,57,38,23,8,40,18,5,30.06,29.87,8,2,15,0.00
2013-4-29,94,76,60,41,9,-26,37,13,1,29.94,29.76,11,3,18,0.00
2013-4-30,94,82,65,14,0,-23,13,5,1,29.86,29.76,17,6,28,0.00
2013-5-1,91,80,71,17,5,-10,10,6,2,30.00,29.83,21,7,33,0.00
2013-5-2,78,58,46,34,23,1,53,29,5,30.43,30.01,21,8,24,0.00
2013-5-3,73,56,40,21,14,5,45,22,7,30.44,30.03,14,4,17,0.00
2013-5-4,87,68,49,18,12,4,24,12,7,30.03,29.85,9,2,13,0.00
2013-5-5,88,73,58,31,20,12,33,14,9,30.12,29.92,21,4,21,0.00
2013-5-6,84,73,65,37,27,19,31,19,10,30.05,29.93,14,5,24,0.00
2013-5-7,84,74,66,32,25,18,24,17,10,30.07,29.90,16,7,28,0.01
2013-5-8,83,73,64,30,21,13,26,15,8,30.07,29.92,19,7,26,0.00
2013-5-9,83,72,64,29,22,15,24,16,9,30.04,29.92,21,5,27,0.00
2013-5-10,82,66,56,49,35,22,69,35,15,30.20,29.99,16,4,28,0.03
2013-5-11,82,65,52,44,39,26,64,42,16,30.29,30.18,15,5,18,0.00
2013-5-12,82,69,54,39,34,27,54,31,14,30.32,30.14,15,4,18,0.00
2013-5-13,86,72,59,36,28,18,39,22,8,30.29,30.11,15,4,16,0.00
2013-5-14,89,73,60,43,35,14,43,27,7,30.17,29.96,11,4,17,0.00
2013-5-15,93,79,66,41,31,23,39,20,8,30.05,29.86,20,5,32,0.00
2013-5-16,95,86,72,28,20,8,18,9,4,30.02,29.86,18,6,26,0.00
2013-5-17,96,84,72,26,17,-1,15,8,4,29.99,29.87,15,6,25,0.00
2013-5-18,91,82,74,29,15,-25,14,9,1,30.02,29.84,23,9,36,0.00
2013-5-19,90,80,68,30,17,3,18,10,4,29.99,29.79,20,7,34,0.00
2013-5-20,92,81,70,29,20,4,19,11,4,29.97,29.77,26,9,32,0.00
2013-5-21,90,76,62,32,18,2,29,13,4,30.04,29.88,13,5,21,0.00
2013-5-22,97,79,58,21,10,-19,22,9,1,29.95,29.83,13,3,23,0.00
2013-5-23,99,84,69,49,23,8,44,13,4,30.01,29.82,18,4,22,0.00
2013-5-24,98,81,66,50,42,26,54,30,9,30.09,29.91,16,5,22,0.00
2013-5-25,99,84,68,54,34,4,57,26,3,30.07,29.91,14,4,23,0.00
2013-5-26,97,84,67,49,22,-26,51,16,1,30.07,29.91,17,5,24,0.00
2013-5-27,94,84,71,22,1,-12,13,4,2,29.99,29.82,16,5,23,0.00
2013-5-28,96,84,72,17,-1,-26,12,4,1,29.84,29.66,15,6,26,0.00
2013-5-29,90,81,71,31,21,-16,19,12,2,29.84,29.69,19,8,36,0.00
2013-5-30,95,83,72,39,31,25,22,16,9,29.94,29.79,18,6,27,0.00
2013-5-31,99,87,77,36,30,23,20,13,8,29.98,29.82,19,7,31,0.00
2013-6-1,102,88,74,41,18,-4,24,9,3,30.03,29.86,17,5,32,0.00
2013-6-2,100,82,69,58,48,41,53,33,18,30.10,29.84,22,6,30,0.00
2013-6-3,100,83,65,55,38,-2,70,32,3,30.03,29.84,17,4,24,0.00
2013-6-4,101,87,68,44,27,9,42,14,4,30.00,29.86,14,4,36,0.00
2013-6-5,101,90,81,35,20,3,19,9,3,30.00,29.85,14,6,26,0.00
2013-6-6,99,84,71,47,38,-3,42,23,3,30.02,29.88,15,5,25,0.00
2013-6-7,99,81,69,58,50,36,65,38,15,30.05,29.84,25,5,30,0.01
2013-6-8,102,85,67,52,38,15,57,26,6,29.96,29.75,28,6,38,0.00
2013-6-9,104,90,77,50,40,14,37,20,6,30.00,29.77,34,7,41,0.00
2013-6-10,108,91,77,51,44,29,37,22,7,30.06,29.90,16,5,26,0.00
2013-6-11,108,91,76,46,38,26,33,17,7,30.05,29.88,11,4,15,0.00
2013-6-12,110,91,74,52,38,23,32,18,5,30.05,29.89,11,4,17,0.00
2013-6-13,103,87,74,58,52,40,55,34,12,30.07,29.92,16,5,23,0.00
2013-6-14,98,82,70,58,55,50,61,42,21,30.05,29.88,13,4,16,0.00
2013-6-16,101,92,86,51,47,43,28,22,14,30.03,29.94,10,4,21,0.00
2013-6-17,102,88,78,64,50,44,46,28,15,30.06,29.91,18,4,23,0.01
2013-6-18,102,86,70,59,53,41,61,37,13,30.10,29.90,12,4,16,0.00
2013-6-19,105,91,77,60,46,27,50,27,7,29.98,29.81,19,6,22,0.00
2013-6-20,104,89,78,51,44,33,36,23,10,30.02,29.87,18,7,28,0.00
2013-6-21,102,85,73,53,49,40,49,31,12,30.06,29.88,18,6,20,0.00
2013-6-22,103,89,74,55,39,10,47,22,5,30.04,29.84,17,5,29,0.00
2013-6-23,103,91,76,51,32,9,42,15,5,29.99,29.83,14,5,25,0.00
2013-6-24,102,92,80,45,35,27,21,14,10,30.02,29.88,14,5,29,0.00
2013-6-25,102,92,82,42,25,4,20,10,4,30.06,29.94,14,6,24,0.00
2013-6-26,106,93,82,17,0,-18,7,3,1,30.08,29.96,20,7,25,0.00
2013-6-27,111,94,81,38,0,-24,16,4,1,30.09,29.96,15,5,25,0.00
2013-6-28,104,92,81,44,38,31,25,16,8,30.21,30.04,16,4,18,0.00
2013-6-29,106,91,76,47,39,24,32,18,6,30.14,29.96,17,4,24,0.00
2013-6-30,103,89,76,59,48,42,55,26,13,30.11,29.91,22,5,28,0.03
2013-7-1,89,76,64,61,58,52,85,56,30,30.25,30.07,17,6,31,0.22
2013-7-2,93,77,65,61,54,45,85,51,21,30.26,30.05,13,4,27,0.00
2013-7-3,96,80,67,58,52,43,71,43,19,30.16,29.92,10,3,18,0.01
2013-7-4,99,83,68,55,50,43,59,35,15,30.01,29.86,9,2,13,0.00
2013-7-5,104,89,75,52,48,41,40,26,12,30.00,29.82,14,4,22,0.00
2013-7-6,104,89,78,56,52,47,45,30,15,29.97,29.81,17,5,32,0.00
2013-7-7,105,91,79,56,51,44,44,27,16,30.02,29.89,16,5,27,0.00
2013-7-8,102,88,77,56,51,46,48,30,15,30.12,30.00,14,4,22,0.00
2013-7-9,104,89,76,58,54,46,51,33,15,30.18,29.98,13,4,19,0.00
2013-7-10,102,88,76,60,56,52,56,36,21,30.17,29.97,13,5,17,0.00
2013-7-11,100,87,77,59,55,50,46,35,19,30.11,29.96,21,3,24,0.00
2013-7-12,104,86,75,62,54,47,61,35,15,30.07,29.91,18,4,24,0.04
2013-7-13,104,88,74,57,52,42,52,31,16,30.09,29.93,15,4,19,0.00
2013-7-14,105,90,75,59,50,46,44,27,15,30.07,29.86,10,3,16,0.00
2013-7-15,85,77,70,60,57,50,60,50,40,30.14,29.98,15,6,18,0.00
2013-7-16,91,77,68,54,51,45,61,42,22,30.19,30.08,12,5,32,0.00
2013-7-17,83,74,66,61,56,52,80,54,38,30.26,30.19,18,6,22,0.00
2013-7-18,77,68,65,67,64,60,92,87,65,30.25,30.12,9,2,17,0.56
2013-7-19,87,75,67,66,63,59,91,69,41,30.16,30.00,12,4,17,0.05
2013-7-20,91,79,68,65,62,57,84,59,34,30.08,29.93,15,3,15,0.00
2013-7-21,97,82,70,62,59,53,70,48,24,30.05,29.89,12,4,20,0.00
2013-7-22,97,82,72,62,60,54,68,48,27,30.05,29.92,19,4,28,0.00
2013-7-23,95,82,75,64,61,57,66,51,29,30.07,29.93,20,5,26,0.01
2013-7-24,97,79,69,66,63,58,89,61,28,30.17,29.96,15,4,23,0.58
2013-7-25,90,77,66,67,64,62,91,68,42,30.21,30.09,8,3,14,0.25
2013-7-26,97,82,74,68,65,57,78,58,32,30.19,30.11,11,3,30,0.03
2013-7-27,87,75,66,69,64,62,89,71,48,30.26,30.04,10,3,17,0.08
2013-7-28,93,79,68,68,64,57,87,62,34,30.08,29.93,13,3,27,0.05
2013-7-29,98,85,72,65,59,50,79,46,21,30.10,30.00,8,3,15,0.00
2013-7-30,103,85,74,65,58,51,60,41,21,30.21,30.08,16,4,26,0.10
2013-7-31,103,86,72,63,57,46,68,42,19,30.23,30.07,10,2,15,0.00
2013-8-1,100,88,76,62,56,48,59,36,18,30.20,30.03,16,3,18,0.00
2013-8-2,97,86,75,68,59,53,63,42,28,30.10,29.98,17,4,27,0.12
2013-8-3,103,88,77,60,56,51,56,36,20,30.11,30.00,17,3,18,0.00
2013-8-4,102,89,77,60,54,50,51,32,19,30.12,29.97,11,3,18,0.00
2013-8-5,101,87,76,59,53,48,47,33,18,30.11,29.96,15,4,28,0.00
2013-8-6,96,85,75,59,55,50,56,37,23,30.09,29.99,19,6,28,0.00
2013-8-7,94,83,75,58,55,50,55,40,24,30.11,29.97,18,6,24,0.00
2013-8-8,97,85,71,55,49,39,56,31,15,30.08,29.95,13,4,20,0.00
2013-8-9,101,87,75,53,45,37,40,25,13,30.12,30.00,16,4,21,0.00
2013-8-10,88,79,74,62,57,51,66,48,36,30.29,30.12,12,4,17,0.01
2013-8-11,97,79,66,64,60,50,82,56,21,30.25,30.06,11,6,17,0.00
2013-8-12,99,85,73,61,58,55,64,43,25,30.16,30.02,10,3,14,0.00
2013-8-13,97,84,76,62,58,51,55,42,25,30.16,30.02,9,3,15,0.00
2013-8-14,101,84,71,64,57,52,77,42,22,30.19,30.02,20,4,33,0.11
2013-8-15,97,81,71,64,58,50,77,49,25,30.19,30.05,11,3,20,0.01
2013-8-16,99,84,70,60,54,43,65,38,18,30.19,30.05,7,2,13,0.00
2013-8-17,102,86,71,54,49,43,51,30,15,30.17,30.01,14,2,21,0.00
2013-8-18,101,86,74,54,50,45,46,29,15,30.16,30.02,8,3,15,0.00
2013-8-19,102,84,74,57,53,48,54,36,18,30.14,30.01,22,4,34,0.00
2013-8-20,99,85,74,56,50,44,55,32,16,30.11,29.98,11,3,15,0.00
2013-8-21,100,84,71,58,48,33,57,31,15,30.13,30.00,12,3,17,0.00
2013-8-22,97,85,71,53,46,34,51,28,11,30.17,30.00,12,4,21,0.00
2013-8-23,96,81,70,56,53,47,58,40,19,30.14,29.99,15,5,25,0.00
2013-8-24,92,80,70,59,56,53,62,45,28,30.15,30.02,15,4,19,0.00
2013-8-25,98,84,71,59,54,50,63,38,21,30.18,30.07,13,4,34,0.00
2013-8-26,97,84,73,57,54,49,54,37,22,30.22,30.07,16,5,22,0.00
2013-8-27,89,79,70,64,58,53,64,50,34,30.16,30.04,16,4,24,0.02
2013-8-28,82,75,72,65,62,60,72,64,50,30.18,30.07,5,1,10,0.00
2013-8-29,83,73,65,67,65,62,94,77,55,30.27,30.16,20,2,24,0.70
2013-8-30,91,78,67,66,63,58,87,63,34,30.21,30.05,7,2,15,0.00
2013-8-31,98,88,70,65,56,49,78,36,23,30.09,29.84,19,3,19,0.00
2013-9-1,101,87,73,60,52,41,61,33,14,29.92,29.80,19,3,19,0.00
2013-9-2,99,84,73,64,54,47,54,37,20,30.10,29.92,25,4,25,0.02
2013-9-3,96,83,73,60,54,44,62,39,19,30.19,30.03,13,4,18,0.00
2013-9-4,96,82,69,55,51,46,56,35,20,30.23,30.09,13,3,20,0.00
2013-9-5,97,84,71,55,47,37,50,30,14,30.23,30.11,13,4,21,0.00
2013-9-6,98,84,72,55,52,49,53,35,20,30.22,30.04,14,3,21,0.00
2013-9-7,96,84,74,56,52,45,54,34,21,30.14,29.98,13,3,22,0.00
2013-9-8,96,83,72,56,52,45,56,36,20,30.07,29.89,13,4,17,0.00
2013-9-9,92,79,71,62,57,53,61,47,29,30.01,29.89,13,5,24,0.00
2013-9-10,81,70,67,66,65,60,93,84,56,30.17,30.00,13,3,25,1.10
2013-9-11,80,71,67,68,66,65,95,86,65,30.22,30.13,9,2,16,0.73
2013-9-12,69,66,63,66,64,61,95,93,89,30.39,30.14,9,2,15,3.05
2013-9-13,71,67,65,66,64,62,95,89,81,30.21,30.10,11,4,14,0.29
2013-9-14,85,73,65,63,59,54,89,65,37,30.16,30.02,9,3,13,0.00
2013-9-15,88,75,64,63,58,53,78,57,33,30.16,30.06,14,3,19,0.00
2013-9-16,85,73,64,65,61,58,82,68,43,30.27,30.13,15,4,16,0.00
2013-9-17,87,75,66,64,61,59,85,64,41,30.23,30.04,10,2,14,0.00
2013-9-18,90,78,67,63,60,58,80,57,39,30.12,29.93,14,4,16,0.00
2013-9-19,88,76,66,66,63,60,83,65,42,30.06,29.92,13,3,21,0.00
2013-9-20,85,74,64,64,60,53,88,63,36,30.20,30.02,12,4,19,0.00
2013-9-21,83,72,63,59,56,52,79,59,38,30.25,30.06,11,4,15,0.00
2013-9-22,88,74,59,56,53,49,81,51,27,30.09,29.84,12,4,18,0.00
2013-9-23,87,76,66,56,43,34,47,32,17,30.11,29.88,27,6,34,0.00
2013-9-24,88,72,60,42,38,35,42,31,17,30.27,30.11,7,2,14,0.00
2013-9-25,94,76,60,50,45,39,56,35,20,30.12,29.87,15,3,15,0.00
2013-9-26,91,81,72,49,44,39,39,28,19,29.97,29.84,16,4,22,0.00
2013-9-27,88,79,71,57,50,39,52,37,22,30.02,29.84,22,7,34,0.00
2013-9-28,78,67,58,42,29,22,39,25,14,30.36,30.03,14,5,20,0.00
2013-9-29,83,66,50,43,35,24,56,33,16,30.41,30.22,9,2,15,0.00
2013-9-30,90,73,56,42,34,21,48,27,11,30.23,30.04,20,4,27,0.00
2013-10-1,90,80,73,30,22,13,18,12,6,30.10,29.99,22,7,31,0.00
2013-10-2,90,77,64,39,33,23,31,20,14,30.12,29.99,10,3,21,0.00
2013-10-3,88,76,62,41,34,26,42,23,12,30.07,29.93,14,4,20,0.00
2013-10-4,87,76,69,45,39,30,39,27,14,30.09,29.96,17,5,28,0.00
2013-10-5,77,64,54,36,21,14,31,19,14,30.40,30.09,16,6,20,0.00
2013-10-6,78,62,51,29,23,18,34,23,12,30.51,30.38,9,3,11,0.00
2013-10-7,83,64,48,33,27,21,46,27,10,30.50,30.28,8,2,11,0.00
2013-10-8,89,69,50,38,32,22,51,28,14,30.27,30.04,13,3,21,0.00
2013-10-9,87,76,64,41,36,30,33,24,16,30.09,29.95,16,4,20,0.00
2013-10-10,85,74,64,46,38,31,49,29,15,30.05,29.90,21,9,38,0.00
2013-10-11,79,67,56,40,37,33,48,34,22,30.16,30.04,15,3,21,0.00
2013-10-12,85,67,55,42,35,29,48,33,16,30.30,30.15,14,3,14,0.00
2013-10-13,82,71,59,55,48,41,70,46,28,30.26,30.13,10,3,24,0.00
2013-10-14,78,73,68,49,48,46,48,42,36,30.18,30.07,19,5,22,0.00
2013-10-15,75,67,59,55,46,28,62,49,25,30.19,30.08,13,6,21,0.00
2013-10-16,76,64,55,51,37,13,75,44,13,30.30,30.19,10,4,24,0.00
2013-10-17,78,61,47,39,26,15,58,28,13,30.33,30.14,10,2,14,0.00
2013-10-18,80,62,47,32,23,15,45,24,9,30.33,30.16,12,2,15,0.00
2013-10-19,73,56,41,35,31,29,64,40,21,30.46,30.27,8,1,10,0.00
2013-10-20,80,62,43,33,24,6,64,31,9,30.29,30.10,14,2,24,0.00
2013-10-21,75,61,48,35,28,8,47,30,9,30.39,30.12,17,3,27,0.00
2013-10-22,76,59,45,39,35,30,72,44,20,30.50,30.35,7,1,8,0.00
2013-10-23,80,61,46,37,33,30,59,37,19,30.43,30.27,7,2,10,0.00
2013-10-24,60,56,54,35,33,31,46,41,38,30.35,30.30,5,2,7,0.00
2013-10-25,82,73,60,44,41,37,50,33,20,30.34,30.20,10,3,12,0.00
2013-10-26,76,63,53,46,40,32,72,47,20,30.41,30.28,10,4,16,0.00
2013-10-27,77,61,47,43,40,37,70,47,27,30.41,30.14,6,1,9,0.00
2013-10-28,79,68,52,42,31,11,66,32,9,30.19,30.08,14,4,23,0.00
2013-10-29,75,70,63,37,25,12,31,19,10,30.17,30.05,17,5,24,0.00
2013-10-30,73,66,59,45,40,24,54,40,25,30.15,30.00,18,7,34,0.00
2013-10-31,70,60,47,25,16,6,38,19,10,30.32,30.15,27,8,36,0.00
2013-11-1,71,58,45,27,21,10,38,24,13,30.46,30.22,17,4,32,0.00
2013-11-2,74,57,42,26,22,17,48,28,13,30.58,30.31,10,2,15,0.00
2013-11-3,78,64,54,48,31,17,72,31,15,30.30,30.01,14,4,17,0.00
2013-11-4,76,62,53,52,48,42,87,62,36,30.14,30.00,8,3,12,0.00
2013-11-5,71,62,53,49,39,27,74,43,30,30.37,30.03,22,5,27,0.00
2013-11-6,64,52,44,28,14,0,42,23,12,30.65,30.37,12,5,16,0.00
2013-11-7,71,55,42,22,15,6,31,21,10,30.75,30.27,9,2,13,0.00
2013-11-8,74,57,43,45,34,22,70,43,30,30.26,30.01,10,2,13,0.00
2013-11-9,76,57,44,47,40,32,91,59,26,30.16,30.05,5,1,7,0.00
2013-11-10,79,58,44,36,32,29,64,40,16,30.27,30.13,5,1,9,0.00
2013-11-11,78,61,48,41,35,31,58,39,27,30.22,30.08,6,2,9,0.00
2013-11-12,70,55,46,43,39,35,72,57,36,30.55,30.20,12,4,17,0.01
2013-11-13,59,51,45,42,39,36,72,63,51,30.53,30.18,8,2,9,0.00
2013-11-14,68,56,45,46,42,40,83,62,38,30.17,29.93,9,2,11,0.00
2013-11-15,70,59,48,51,46,42,87,65,42,29.94,29.73,22,6,40,0.04
2013-11-16,72,65,56,50,46,41,80,52,34,29.79,29.65,21,9,35,0.00
2013-11-17,69,62,55,45,41,38,62,48,34,30.05,29.77,16,5,34,0.00
2013-11-18,70,58,52,41,39,37,63,49,32,30.15,30.03,8,2,14,0.00
2013-11-19,72,59,48,46,40,37,67,52,33,30.05,29.84,17,3,17,0.00
2013-11-20,71,63,51,44,41,35,66,46,30,29.89,29.76,21,4,25,0.00
2013-11-21,73,64,56,45,40,36,50,42,32,30.04,29.82,15,4,27,0.00
2013-11-22,62,43,36,38,30,26,68,61,40,30.51,30.03,14,7,20,0.00
2013-11-23,40,37,31,31,28,26,90,72,62,30.64,30.35,14,5,20,0.00
2013-11-24,34,32,29,30,28,27,94,87,80,30.40,30.26,9,2,13,0.01
2013-11-25,46,38,33,35,32,29,88,78,58,30.35,30.18,12,3,18,0.13
2013-11-26,52,42,31,32,28,25,88,60,37,30.47,30.35,9,2,11,0.00
2013-11-27,50,41,31,29,26,23,78,58,36,30.43,30.21,9,3,11,0.00
2013-11-28,56,44,33,31,28,26,78,57,35,30.29,30.18,5,3,10,0.00
2013-11-29,62,49,39,37,33,28,68,55,37,30.32,30.16,8,3,11,0.00
2013-11-30,64,52,43,40,37,34,73,57,40,30.23,30.09,8,3,11,0.00
2013-12-1,59,52,46,42,39,38,75,62,49,30.16,30.04,9,2,9,0.00
2013-12-2,65,54,38,39,28,16,82,45,15,30.05,29.79,17,4,26,0.00
2013-12-3,70,62,48,43,25,13,47,25,13,29.79,29.57,27,6,36,0.00
2013-12-4,69,63,58,45,40,33,57,44,31,29.69,29.53,31,11,53,0.00
2013-12-5,58,51,44,46,41,34,85,68,46,29.87,29.65,20,8,30,0.48
2013-12-6,52,43,35,34,29,26,83,59,38,30.12,29.87,16,5,30,0.00
2013-12-7,39,35,32,33,32,29,95,87,78,30.17,30.00,16,5,19,0.01
2013-12-8,54,44,32,32,27,22,90,55,30,30.05,29.94,22,6,31,0.00
2013-12-9,55,43,34,33,23,6,80,49,24,30.36,29.96,26,7,32,0.00
2013-12-10,46,36,29,12,5,0,39,27,17,30.42,30.25,14,5,20,0.00
2013-12-11,54,43,34,24,14,5,52,32,20,30.46,30.28,11,3,15,0.00
2013-12-12,44,40,37,37,30,21,90,68,47,30.45,30.16,10,4,13,0.02
2013-12-13,57,46,34,41,36,33,95,70,40,30.15,29.95,25,7,36,0.01
2013-12-14,55,46,36,34,27,22,76,49,30,30.34,30.00,14,4,24,0.00
2013-12-15,56,42,29,28,25,23,80,54,30,30.39,30.26,7,2,10,0.00
2013-12-16,61,44,31,27,25,23,76,49,27,30.35,30.23,7,2,11,0.00
2013-12-17,64,49,38,29,26,25,64,43,24,30.34,30.18,8,2,9,0.00
2013-12-18,61,48,37,30,28,26,68,48,27,30.20,29.89,5,2,7,0.00
2013-12-19,69,57,41,30,22,6,61,30,9,29.88,29.63,21,7,31,0.00
2013-12-20,59,51,42,46,35,20,82,57,22,29.66,29.48,13,5,32,0.02
2013-12-21,49,42,36,35,32,28,84,67,53,29.89,29.55,43,13,44,0.08
2013-12-22,52,44,35,31,27,21,66,52,31,30.26,29.89,26,8,37,0.00
2013-12-23,53,41,31,27,24,20,77,53,28,30.47,30.26,11,3,14,0.00
2013-12-24,56,42,32,29,25,22,67,52,32,30.43,30.16,8,2,11,0.00
2013-12-25,53,43,36,29,27,23,71,54,38,30.40,30.21,11,3,12,0.00
2013-12-26,51,40,31,28,26,23,80,59,36,30.41,30.25,7,2,9,0.00
2013-12-27,54,41,33,28,25,24,70,54,34,30.40,30.25,8,3,12,0.00
2013-12-28,56,43,29,30,26,21,75,52,35,30.25,29.93,11,3,18,0.00
2013-12-29,54,45,34,27,24,22,61,46,31,30.20,29.90,11,4,18,0.00
2013-12-30,55,38,27,26,22,19,72,54,30,30.37,30.19,10,2,12,0.00
2013-12-31,56,42,30,24,22,19,65,46,26,30.36,30.15,8,2,10,0.00
2014-1-1,62,46,32,26,24,21,69,44,23,30.22,30.05,7,3,9,0.00
2014-1-2,55,44,34,29,26,22,75,50,32,30.37,30.21,9,3,12,0.00